World > North America > United States > Ohio > North College Hill  

North College Hill, OH Hourly Weather Updates

Feedback E-mail the Weather

Quick Clicks

North College Hill, OH Weather Maps

°F °C°F °C
North College Hill Weather Map
UTC Time: 4/23/2024, 17:18
Your Time:

North College Hill, OH Regional Weather

Expires:202404231800;;247568
ASUS41 KCLE 231712
RWRCLE
OHIO REGIONAL WEATHER ROUNDUP
NATIONAL WEATHER SERVICE WILMINGTON, OH
100 PM EDT TUE APR 23 2024

NOTE: "FAIR" INDICATES FEW OR NO CLOUDS BELOW 12,000 FEET WITH NO
SIGNIFICANT WEATHER AND/OR OBSTRUCTIONS TO VISIBILITY.


OHZ042-051>053-060>062-070>072-077>081-231800-
  SOUTHWEST OHIO
  
CITY           SKY/WX    TMP DP  RH WIND       PRES   REMARKS
CINC-COVINGTON CLOUDY    62  38  40 SW16G30   29.99F                  
CINC-LUNKEN    FAIR      64  40  41 SW21G30   30.00S                  
HAMILTON       FAIR      65  39  38 VRB7G20   29.99F                  
DAYTON         CLOUDY    61  39  44 SW17G26   29.96S                  
WRIGHT-PAT AFB FAIR      62  37  39 SW22      29.97R                  
DAYTON GENERAL   N/A     61  36  39 SW18G28   29.97R                  
WILMINGTON     FAIR      63  38  39 W22G30    29.99R                  
$$


SKY/WX - Weather  TMP - Temperature  DP - Dew Point  RH - Humidity
WIND - Wind Direction/Speed PRES - Barometric Pressure VSB - Visibility
WCI - Wind Chill Index E13G22 Wind - East Wind 13 mph/Gusts of 22 mph

Trending Headlines

Trending Entertainment Headlines

North College Hill Radar Loop

Use the map search tool if you want to place a location marker on the radar map...

North College Hill Quick Facts

National Two Day Weather Forecast


E-mail the North College Hill Weather Forecast

Voice your opinion or tell us about page issues...